FW3057 Weather Reports


Display with metric or nautical units.
time (UTC)temp
F
wind
direction
speed
MPH
gust
MPH
rain 1hr
in
rain 24hr
in
rain mn
in
humidity
%
barometer
mb
20260507101310 55 89 2.0 7.0 0.00 0.00 0.00 86 1014.7
20260507100310 54 140 6.0 8.0 0.00 0.00 0.00 86 1014.7
20260507094310 54 110 4.0 6.0 0.00 0.00 0.00 86 1014.7
20260507093310 54 176 4.0 7.0 0.00 0.00 0.00 86 1014.7
20260507092310 54 128 4.0 8.0 0.00 0.00 0.00 85 1014.7
20260507085309 53 202 2.0 8.0 0.00 0.00 0.00 85 1014.7
20260507084310 53 150 4.0 7.0 0.00 0.00 0.00 85 1014.6
20260507083310 53 161 4.0 9.0 0.00 0.00 0.00 85 1014.6
20260507082309 53 241 2.0 8.0 0.00 0.00 0.00 86 1014.6
20260507080309 52 81 2.0 7.0 0.00 0.00 0.00 86 1014.6
20260507075310 52 152 4.0 8.0 0.00 0.00 0.00 86 1014.6
20260507074309 52 149 5.0 9.0 0.00 0.00 0.00 87 1014.4
20260507073310 51 143 3.0 10.0 0.00 0.00 0.00 88 1014.5
20260507072309 51 129 4.0 9.0 0.00 0.00 0.00 88 1014.3
20260507071309 51 135 4.0 8.0 0.00 0.00 0.00 88 1014.3
20260507070309 51 165 2.0 7.0 0.00 0.00 0.00 89 1014.2
20260507065309 51 168 4.0 9.0 0.00 0.00 0.00 89 1014.2
20260507064309 50 120 2.0 9.0 0.00 0.00 0.00 90 1014.2
20260507063309 50 155 5.0 8.0 0.00 0.00 0.00 91 1014.1
20260507062309 50 117 3.0 8.0 0.00 0.00 0.00 92 1014.1
20260507060309 50 46 4.0 8.0 0.00 0.00 0.00 94 1014.0
20260507055309 50 148 5.0 7.0 0.00 0.00 0.00 94 1014.0
20260507054309 50 98 1.0 4.0 0.00 0.00 0.00 94 1013.8
20260507053309 50 124 2.0 5.0 0.00 0.00 0.00 94 1013.8
20260507052309 50 145 2.0 5.0 0.00 0.00 0.00 94 1013.7
20260507051309 50 152 3.0 6.0 0.00 0.00 0.00 94 1013.9
20260507045309 50 167 2.0 5.0 0.00 0.00 0.00 94 1013.7
20260507044309 51 117 1.0 4.0 0.00 0.00 0.00 94 1013.6
20260507043311 51 201 3.0 6.0 0.00 0.00 0.00 94 1013.5
20260507042311 51 127 2.0 4.0 0.00 0.00 0.00 93 1013.5
20260507041311 51 140 1.0 4.0 0.00 0.00 0.00 93 1013.6
20260507040310 51 158 3.0 5.0 0.00 0.00 0.00 93 1013.6
20260507034311 51 122 3.0 4.0 0.00 0.00 0.00 93 1013.6
20260507033311 51 175 3.0 4.0 0.00 0.00 0.00 93 1013.5
20260507032311 51 197 2.0 3.0 0.00 0.00 0.00 93 1013.5
20260507031311 51 178 1.0 3.0 0.00 0.00 0.00 93 1013.4
20260507030310 51 152 1.0 3.0 0.00 0.00 0.00 93 1013.6
20260507025310 51 142 2.0 3.0 0.00 0.00 0.00 93 1013.6
20260507024311 51 135 1.0 3.0 0.00 0.00 0.00 93 1013.6
20260507023311 51 169 1.0 3.0 0.00 0.00 0.00 93 1013.6
20260507021311 51 178 1.0 3.0 0.00 0.00 0.00 92 1013.5
20260507020310 51 142 1.0 3.0 0.00 0.00 0.00 92 1013.6
20260507015310 52 161 1.0 2.0 0.00 0.00 0.00 92 1013.7
20260507014310 52 193 1.0 2.0 0.00 0.00 0.00 93 1013.6
20260507013310 52 152 1.0 2.0 0.00 0.00 0.00 93 1013.5
20260507012310 52 170 1.0 2.0 0.00 0.00 0.00 92 1013.7
20260507010310 52 178 1.0 3.0 0.00 0.00 0.00 92 1013.6
20260507005310 52 168 1.0 2.0 0.00 0.00 0.00 92 1013.7
20260507004310 52 108 0.0 2.0 0.00 0.00 0.00 92 1013.7
20260507003310 52 74 1.0 3.0 0.00 0.00 0.00 92 1013.7
20260507002310 52 68 2.0 4.0 0.00 0.00 0.00 91 1013.8
20260507001310 53 63 1.0 2.0 0.00 0.00 0.00 91 1013.9
20260506235310 53 76 1.0 3.0 0.00 0.00 0.00 91 1013.9
20260506234310 53 89 1.0 3.0 0.00 0.00 0.00 91 1014.1
20260506233310 53 70 2.0 4.0 0.00 0.00 0.00 90 1013.8
20260506232310 53 107 1.0 3.0 0.00 0.00 0.00 90 1014.0
20260506231310 53 102 2.0 4.0 0.00 0.00 0.00 90 1014.1
20260506230310 53 135 2.0 4.0 0.00 0.00 0.00 90 1014.1
20260506225310 53 102 2.0 4.0 0.00 0.00 0.00 89 1014.1
20260506223310 53 63 1.0 3.0 0.00 0.00 0.00 89 1014.1
20260506222310 53 89 2.0 4.0 0.00 0.00 0.00 89 1014.2
20260506221310 53 98 2.0 5.0 0.00 0.00 0.00 89 1014.2
20260506220310 53 35 2.0 5.0 0.00 0.00 0.00 89 1014.3
20260506215310 53 89 2.0 4.0 0.00 0.00 0.00 89 1014.1
20260506214310 53 89 3.0 4.0 0.00 0.00 0.00 89 1014.1
20260506213310 53 72 2.0 6.0 0.00 0.00 0.00 89 1014.1
20260506212310 53 83 2.0 5.0 0.00 0.00 0.00 89 1014.1
20260506211310 53 107 3.0 5.0 0.00 0.00 0.00 89 1014.2
20260506210310 53 61 4.0 6.0 0.00 0.00 0.00 88 1014.1
20260506205310 53 114 2.0 5.0 0.00 0.00 0.00 88 1014.1
20260506204310 53 108 2.0 5.0 0.00 0.00 0.00 88 1014.1
20260506203310 53 135 2.0 3.0 0.00 0.00 0.00 89 1014.1
20260506202310 53 100 1.0 3.0 0.00 0.00 0.00 89 1014.1
20260506200310 54 117 2.0 3.0 0.00 0.00 0.00 88 1013.9
20260506194310 54 51 1.0 6.0 0.00 0.00 0.00 88 1013.5
20260506193310 54 127 1.0 3.0 0.00 0.00 0.00 88 1013.5
20260506192310 54 46 2.0 5.0 0.00 0.00 0.00 89 1013.4
20260506191310 54 103 2.0 4.0 0.00 0.00 0.00 89 1013.4
20260506190310 54 58 3.0 5.0 0.00 0.00 0.00 89 1013.4
20260506185309 54 81 4.0 5.0 0.00 0.00 0.00 88 1013.3
20260506184309 54 70 3.0 6.0 0.00 0.00 0.00 88 1013.3
20260506183310 54 96 3.0 5.0 0.00 0.00 0.00 88 1013.1
20260506182309 54 113 3.0 6.0 0.00 0.00 0.00 88 1013.2
20260506181309 54 75 3.0 5.0 0.00 0.00 0.00 88 1013.1
20260506180309 55 110 2.0 5.0 0.00 0.00 0.00 88 1013.1
20260506175309 55 88 3.0 6.0 0.00 0.00 0.00 88 1013.0
20260506174310 55 84 4.0 5.0 0.00 0.00 0.00 88 1012.9
20260506173309 55 84 5.0 8.0 0.00 0.00 0.00 87 1012.9
20260506172309 55 108 2.0 7.0 0.00 0.00 0.00 87 1012.9
20260506171309 55 72 4.0 5.0 0.00 0.00 0.00 87 1012.8
20260506170309 55 70 3.0 5.0 0.00 0.00 0.00 87 1012.8
20260506165309 55 100 2.0 5.0 0.00 0.00 0.00 87 1012.9
20260506164309 55 63 1.0 6.0 0.00 0.00 0.00 87 1012.8
20260506162309 55 66 4.0 6.0 0.00 0.00 0.00 86 1012.8
20260506161309 55 56 2.0 5.0 0.00 0.00 0.00 86 1012.8
20260506155309 55 67 2.0 6.0 0.00 0.00 0.00 86 1012.9
20260506154309 55 63 2.0 5.0 0.00 0.00 0.00 86 1012.8
20260506153309 55 8 3.0 7.0 0.00 0.00 0.00 86 1012.8
20260506152309 55 1 1.0 6.0 0.00 0.00 0.00 85 1012.7
20260506151309 56 1 2.0 5.0 0.00 0.00 0.00 85 1012.8
20260506150309 56 89 3.0 5.0 0.00 0.00 0.00 85 1012.7
20260506130310 58 49 6.0 10.0 0.00 0.00 0.00 83 1012.8
20260506125310 58 124 4.0 9.0 0.00 0.00 0.00 84 1012.9
20260506124310 57 54 6.0 11.0 0.00 0.00 0.00 84 1012.9
20260506123310 57 82 6.0 12.0 0.00 0.00 0.00 84 1012.8
20260506122310 57 66 6.0 9.0 0.00 0.00 0.00 83 1012.7
20260506121310 57 86 4.0 9.0 0.00 0.00 0.00 85 1012.8
20260506120310 57 66 6.0 8.0 0.00 0.00 0.00 85 1012.8
20260506115310 56 89 4.0 10.0 0.00 0.00 0.00 87 1012.8
20260506114310 56 58 7.0 10.0 0.00 0.00 0.00 87 1012.7
20260506113310 56 84 6.0 10.0 0.00 0.00 0.00 88 1012.6
20260506112310 56 96 5.0 10.0 0.00 0.00 0.00 88 1012.8
20260506111310 56 124 4.0 8.0 0.00 0.00 0.00 89 1012.8
20260506110310 56 76 3.0 9.0 0.00 0.00 0.00 91 1012.7
20260506105310 56 60 6.0 8.0 0.00 0.00 0.00 92 1012.8
20260506104310 56 63 3.0 5.0 0.00 0.00 0.00 93 1012.6
20260506103310 55 51 4.0 7.0 0.00 0.00 0.00 93 1012.6